Wind_Speed
29 28 27 26 25 23 21 21 20 22 25 26 26 26 26 25 23 21 20 19 17 16 16 15 15 14 12 10 9 8 8 8 8 7 7 7 8 10 11 12 11 11 11 12 11 11 11 11 12 12 13 14 14 14 14 15 16 16 16 16 16 16 16 17 18 18 15 13 14 14 15 17 18 17 17 18 19 20 21 20 20 20 20 20 21
29 28 28 28 27 26 23 21 20 21 23 26 27 27 27 28 26 24 23 21 20 19 18 16 16 16 15 13 10 9 9 9 9 9 8 8 9 10 11 12 12 12 12 12 12 12 13 13 13 13 14 15 15 15 15 15 17 17 18 18 18 17 18 18 19 20 19 15 14 15 16 17 19 18 18 18 19 19 20 20 19 20 20 20 21
29 29 29 29 29 27 26 24 22 22 23 25 27 27 28 29 29 27 25 23 22 21 19 17 17 17 18 16 13 11 10 10 11 11 10 9 9 9 10 11 11 11 11 11 11 12 13 13 12 12 14 15 15 15 15 15 16 18 18 18 19 18 18 19 19 21 21 20 18 16 16 17 18 18 18 19 19 19 20 19 19 20 20 20 20
30 30 30 30 30 29 29 27 25 24 24 24 25 26 27 29 30 30 28 26 24 23 21 19 18 18 19 18 15 13 12 11 11 12 11 10 10 10 10 10 10 10 10 9 10 11 12 12 11 11 13 14 14 14 14 15 15 16 17 18 18 18 18 19 20 21 22 23 22 20 18 18 19 19 19 19 19 20 20 20 19 20 21 20 20
31 31 30 30 30 30 30 30 29 27 25 24 24 24 26 29 31 31 30 28 27 25 24 22 21 20 19 19 17 15 13 13 13 13 12 12 12 12 12 12 12 12 11 11 11 12 13 13 11 12 13 14 14 14 14 15 16 17 18 18 18 18 18 19 20 20 22 24 24 23 21 20 19 19 19 19 19 20 21 20 20 21 21 20 19
32 32 31 31 30 30 31 31 31 30 27 25 24 23 25 28 30 31 31 30 29 28 27 26 24 23 21 20 19 18 17 16 16 16 15 14 14 14 15 15 15 15 15 14 14 14 14 15 14 14 15 16 16 15 16 16 17 19 19 19 19 19 20 20 21 21 22 23 24 24 22 20 20 19 19 19 20 21 21 21 20 20 20 20 18
32 33 33 32 32 31 30 30 32 31 29 27 25 24 24 26 29 30 31 31 30 30 30 29 28 27 25 23 22 21 19 19 19 18 17 17 16 16 17 17 18 18 18 17 17 17 17 17 17 17 18 18 18 17 17 17 18 19 20 20 20 20 21 22 22 23 23 23 24 24 23 21 21 20 18 18 19 20 20 21 22 20 20 20 18
32 33 33 34 33 32 30 30 31 31 30 29 27 26 25 25 27 29 31 32 32 31 32 32 31 30 28 26 24 22 22 21 21 21 21 19 18 18 18 18 19 20 20 20 20 20 21 20 20 20 20 19 18 18 18 19 19 21 21 21 21 22 22 22 23 24 24 24 25 24 24 23 21 20 18 17 18 18 18 20 22 22 21 22 20
32 32 33 33 32 31 30 30 30 31 31 31 30 29 27 26 26 27 29 31 31 32 32 33 33 32 31 30 28 26 25 24 23 23 23 22 21 21 20 20 20 21 22 23 23 24 24 24 24 24 23 21 20 20 20 21 22 23 23 23 24 24 23 23 23 24 24 25 26 25 24 24 22 19 18 17 17 17 18 19 21 21 21 23 22
32 32 33 33 31 30 30 31 31 31 32 32 31 30 29 28 27 27 28 29 30 31 31 33 34 35 34 33 32 30 28 27 26 25 25 25 24 23 23 22 22 22 23 24 25 26 26 27 26 26 25 24 23 23 22 23 24 25 26 27 27 26 25 24 24 25 25 26 26 25 25 25 22 19 17 16 16 17 18 19 20 21 21 23 23
31 32 32 32 32 31 31 32 31 31 32 33 33 33 32 31 30 29 29 29 30 31 32 33 34 36 36 36 35 34 32 30 28 27 26 27 27 26 26 25 25 25 25 26 27 28 28 29 29 28 27 27 26 25 25 25 26 27 29 30 30 28 28 27 26 26 27 27 27 25 25 25 22 18 17 16 16 16 18 19 19 20 21 23 24
30 32 32 32 33 33 31 30 31 30 30 30 31 33 35 35 35 33 32 30 30 31 32 33 34 35 37 38 38 38 37 34 32 30 29 29 29 29 29 28 28 28 28 28 29 29 29 30 30 30 30 30 28 28 29 29 29 31 33 34 32 30 30 30 29 28 27 28 28 27 27 26 23 19 16 16 16 17 18 19 19 20 21 23 24
29 31 31 31 32 32 29 29 31 31 29 28 27 29 32 35 37 37 36 34 32 31 32 33 33 34 36 39 40 41 39 38 35 34 33 32 31 31 31 31 31 31 31 31 31 32 32 33 33 32 32 32 31 31 32 33 32 32 34 36 35 32 31 30 30 29 28 29 29 28 27 25 23 19 15 15 16 17 19 20 20 20 21 22 24
26 29 30 30 31 31 30 30 30 30 29 29 29 28 29 31 34 35 36 37 36 35 34 33 33 33 34 36 38 40 40 39 38 37 36 35 34 33 34 34 34 34 34 34 34 35 35 35 36 35 35 34 33 33 35 35 35 36 36 36 36 35 32 29 28 30 30 30 30 28 26 24 22 17 14 15 17 17 19 20 21 21 22 22 24
19 22 25 27 28 29 29 30 30 29 28 28 30 31 29 29 29 30 32 35 36 37 36 35 35 34 33 34 35 37 38 37 37 37 37 37 36 36 37 37 37 37 37 36 37 37 37 37 37 37 37 36 35 35 37 38 40 42 41 38 37 38 35 29 26 28 30 30 29 27 24 23 20 16 14 15 17 17 18 20 21 22 22 22 24
15 16 19 23 25 26 27 28 28 28 27 27 29 30 31 30 29 29 30 32 34 35 36 36 36 36 35 34 35 36 36 35 35 36 36 37 37 38 39 40 40 40 40 39 39 39 38 38 38 38 39 38 37 37 38 42 44 45 43 40 38 39 37 31 28 28 28 28 27 25 23 22 19 16 14 16 17 17 18 20 20 20 21 22 24
14 14 16 18 21 23 25 26 27 27 27 28 28 28 30 30 29 29 30 31 31 33 34 34 35 36 36 36 36 36 35 34 33 34 35 35 36 38 39 40 40 41 41 40 40 40 39 39 39 39 39 39 38 37 39 44 46 44 41 39 38 38 37 33 29 28 26 26 24 22 22 21 19 17 16 16 17 16 17 18 18 18 20 22 25
15 15 15 15 16 18 20 23 24 24 25 26 27 27 28 29 30 30 31 30 29 30 30 32 33 35 36 36 36 36 35 33 32 32 32 33 34 35 36 37 38 39 39 39 39 39 38 37 37 38 38 38 37 37 38 42 43 42 41 38 36 36 34 30 27 25 23 22 21 20 20 20 18 17 16 16 16 16 17 17 17 18 20 22 25
16 16 16 15 14 14 16 18 19 20 21 22 23 23 24 26 29 31 32 31 30 29 29 30 31 33 34 34 34 34 34 32 31 31 31 31 33 34 34 36 37 37 37 37 37 37 37 36 36 37 37 37 36 36 37 38 38 38 36 33 33 35 33 26 23 20 18 17 18 18 19 18 18 17 17 17 17 16 16 17 18 20 22 24 25
15 15 14 14 13 12 14 15 16 17 18 19 21 22 22 25 28 30 31 31 31 30 29 30 31 31 32 32 32 33 33 33 32 31 31 31 32 34 35 36 36 36 36 36 37 37 37 37 36 35 35 35 34 33 33 32 32 32 30 28 31 33 28 19 17 16 14 15 16 16 16 16 16 16 16 16 16 16 16 17 20 22 24 25 25
15 14 13 13 12 12 13 14 15 16 17 19 20 20 21 23 25 26 27 29 29 28 28 30 31 32 31 31 31 31 32 33 33 32 32 32 33 34 36 37 36 36 36 36 36 37 36 35 34 32 32 31 30 30 30 29 28 27 26 26 27 25 18 14 15 15 14 15 16 16 15 14 15 16 16 16 16 16 16 19 22 24 25 25 26
16 14 13 12 11 11 12 12 13 13 14 16 18 18 20 22 23 23 24 26 27 27 27 28 29 30 30 30 30 30 30 31 32 33 34 34 34 35 36 35 34 35 35 35 35 35 32 30 29 29 29 30 28 27 26 24 23 23 22 21 22 20 16 16 17 16 16 17 16 15 14 13 14 15 15 15 15 16 19 23 25 26 26 25 26
19 16 14 13 11 11 11 10 10 11 12 14 16 17 19 21 21 21 22 23 25 27 27 27 28 29 29 29 28 28 27 29 31 33 32 31 30 31 32 32 31 31 32 32 31 31 29 28 28 28 28 27 23 20 20 20 21 21 19 17 17 17 16 17 17 16 16 15 14 13 13 14 15 15 15 16 17 19 23 25 26 25 25 24 24
19 17 16 15 12 11 11 10 10 12 13 15 16 17 19 20 20 20 20 21 23 24 25 25 27 28 29 30 30 29 28 29 30 29 26 25 25 26 28 28 27 27 28 28 28 30 29 28 28 26 22 20 18 16 16 18 18 16 15 14 13 14 14 14 14 13 13 13 12 13 13 15 15 16 16 17 19 22 24 25 25 23 22 22 22
19 17 16 15 13 12 11 11 11 12 13 13 13 13 15 16 17 17 17 18 19 21 22 23 23 25 27 28 29 28 27 26 26 24 22 22 23 24 24 24 24 25 27 28 29 30 29 26 25 22 19 18 17 15 14 14 12 11 11 10 10 9 10 10 11 11 11 12 12 13 13 13 14 14 16 18 20 22 23 22 22 21 20 20 18
23 23 22 21 19 18 17 17 16 15 14 14 12 10 9 9 9 9 9 9 10 10 11 12 12 12 13 14 15 17 17 18 18 19 20 20 21 22 23 24 24 25 26 28 29 30 29 27 24 20 18 16 13 10 9 8 8 7 7 7 7 7 8 8 9 9 10 10 11 11 10 11 12 13 15 16 17 18 18 17 16 15 14 14 11
24 25 25 24 24 23 23 22 21 20 19 18 16 15 13 10 8 8 9 10 10 10 10 9 9 10 10 11 10 7 5 5 5 6 7 8 9 12 14 17 19 20 21 23 23 22 20 16 11 7 7 5 4 3 4 4 5 6 6 6 6 6 6 7 7 8 8 8 7 7 8 9 9 10 10 11 11 11 10 8 8 7 7 7 6
24 25 24 24 24 24 23 22 22 21 20 20 19 19 19 17 16 17 18 18 19 20 21 21 21 20 19 18 17 16 15 14 14 14 13 12 11 10 9 9 7 6 5 5 7 8 5 3 4 5 4 1 0 2 3 3 4 4 4 4 4 5 7 9 9 8 7 5 4 4 4 5 5 5 6 7 7 6 4 4 4 4 5 6 6
24 24 24 25 25 25 24 23 22 21 20 19 19 20 20 20 20 20 20 20 19 20 20 22 24 24 24 24 24 23 22 22 22 21 19 17 15 14 15 17 18 17 17 16 15 15 13 11 10 9 7 6 6 7 7 7 8 8 8 9 9 8 8 8 8 6 4 2 2 2 2 3 3 4 4 5 6 6 4 4 4 4 5 6 7
24 24 24 25 25 25 26 25 24 23 21 21 21 21 22 23 23 24 23 22 20 19 18 17 17 17 17 20 23 25 25 26 26 25 24 23 21 20 20 21 22 22 22 20 18 16 16 16 15 15 14 14 14 13 13 12 11 11 10 9 9 7 6 6 5 3 2 2 2 2 2 3 3 4 4 5 6 7 7 6 6 5 6 6 7
24 24 24 24 23 24 25 25 24 23 21 21 21 22 23 24 24 25 25 25 23 22 21 20 19 16 14 13 13 14 15 16 17 18 18 18 17 17 17 17 17 18 18 17 16 16 16 15 14 14 14 13 12 11 10 9 9 8 7 5 4 3 3 2 2 2 2 2 2 2 2 2 3 3 5 6 7 7 8 8 7 7 6 7 8
22 22 22 21 21 21 22 23 22 21 19 19 19 21 22 22 22 22 22 23 24 24 23 22 21 20 18 15 13 12 12 13 15 16 16 16 16 16 15 15 14 14 14 13 13 13 13 12 11 11 10 9 7 6 6 5 5 5 3 2 1 1 2 2 2 2 2 2 2 2 2 2 2 4 6 6 7 7 7 7 7 7 7 8 9
20 21 20 20 20 20 20 20 20 20 19 18 18 19 19 20 20 19 18 19 20 21 21 20 20 19 17 15 13 12 12 14 15 15 15 15 14 14 13 13 12 11 10 9 8 8 7 7 6 6 5 4 4 4 4 3 3 2 2 1 1 2 2 2 2 2 3 3 2 1 1 2 5 7 8 7 6 6 6 6 6 6 7 8 9
18 19 19 20 21 21 20 19 18 18 18 18 17 17 18 18 18 18 17 16 17 17 18 18 17 17 16 15 14 12 12 12 13 13 12 12 10 10 9 8 7 6 6 6 5 5 5 5 4 4 4 4 4 4 4 4 4 4 3 3 3 3 3 3 2 2 1 1 1 1 3 5 6 7 6 5 5 4 5 5 6 7 8 9 9
15 16 16 17 18 20 20 19 18 17 17 16 15 15 15 15 16 16 16 16 16 15 15 15 15 15 15 14 14 14 14 14 14 15 14 13 12 11 10 9 9 9 8 8 8 7 6 6 5 5 6 6 5 6 6 6 6 6 6 6 5 5 5 4 3 2 1 1 1 3 4 6 7 7 7 7 6 5 4 5 6 7 8 9 10
13 14 14 15 15 16 18 18 17 16 16 15 14 13 13 14 14 14 15 15 15 14 14 14 14 14 14 13 12 12 12 13 14 14 14 13 12 11 11 12 12 12 12 12 12 12 11 10 9 8 8 8 8 8 8 8 8 8 8 7 6 5 5 4 3 2 2 1 2 4 6 8 10 10 10 10 9 8 7 6 7 8 9 10 11
11 12 12 12 12 13 14 16 16 16 15 13 11 11 11 12 12 13 14 14 14 14 14 14 14 14 15 14 12 10 9 10 11 11 13 13 12 11 11 11 11 12 12 13 13 13 13 11 10 9 9 8 8 8 8 9 9 9 9 9 8 6 5 4 2 1 2 4 4 5 6 8 10 11 12 12 11 10 10 10 9 9 9 10 11
11 11 11 11 10 10 11 13 14 14 13 11 9 9 9 10 11 12 13 13 13 13 13 14 15 17 17 17 15 13 11 9 8 8 9 10 9 9 9 9 9 9 10 10 10 11 11 11 10 8 7 6 5 5 5 6 7 7 8 9 9 7 6 5 5 5 5 5 3 3 5 7 8 10 12 13 13 13 12 12 11 11 11 11 12
10 10 10 9 8 8 9 10 11 12 12 10 9 8 8 8 9 10 10 11 12 12 13 14 15 17 18 17 16 15 14 12 10 9 9 8 7 7 7 7 7 8 8 9 8 8 8 9 9 9 8 7 6 5 4 4 4 4 4 6 7 6 5 4 4 3 3 2 2 3 4 5 7 9 11 13 13 14 13 12 12 12 12 12 13
11 11 10 10 9 8 8 9 11 11 11 11 10 9 8 8 8 8 8 9 10 11 12 13 14 15 17 16 15 14 13 12 11 9 9 8 6 6 6 6 5 6 7 8 8 7 6 6 7 8 7 7 8 8 8 7 6 5 3 2 2 3 3 3 2 1 1 2 3 4 5 5 6 8 10 12 12 13 14 14 14 14 13 13 14
12 12 13 13 13 11 11 11 12 12 11 11 11 10 9 7 6 6 6 7 8 9 11 12 12 13 13 14 14 14 13 11 10 10 10 10 9 8 8 7 7 7 8 9 10 10 9 8 8 8 8 8 7 7 8 9 10 10 8 6 4 3 2 2 3 4 4 5 5 6 6 6 7 8 10 11 11 13 14 14 14 14 14 14 14
16 15 15 15 16 15 15 14 12 11 10 11 11 10 8 6 5 6 6 7 7 8 9 10 10 11 11 12 14 14 13 12 11 11 11 11 11 11 11 10 10 10 10 11 11 11 11 11 10 10 10 11 10 9 9 10 12 13 13 12 10 9 8 7 7 7 8 9 9 9 10 10 9 8 9 10 10 11 12 13 14 14 14 14 14
18 17 16 16 15 15 15 13 11 9 9 9 9 8 7 6 6 6 7 7 7 8 8 8 9 10 11 12 13 14 14 13 13 13 13 13 13 13 13 12 12 12 12 11 11 11 10 10 9 10 10 11 11 11 11 12 13 15 16 16 15 15 14 13 12 12 13 13 13 13 13 13 12 11 11 10 10 10 11 12 13 14 14 15 15
18 16 14 12 11 10 9 9 8 7 6 6 5 5 5 5 5 5 6 6 7 8 8 9 9 11 11 12 13 13 14 14 15 15 16 16 15 15 14 14 13 13 13 13 13 13 13 12 11 11 11 12 12 13 13 13 14 16 18 20 20 20 19 18 17 17 17 18 18 18 18 18 16 14 14 13 12 11 10 11 12 14 14 15 15
16 13 10 8 6 5 4 4 4 3 3 3 3 4 4 4 4 5 6 6 7 8 9 10 11 12 13 14 14 15 15 16 17 17 18 18 18 17 17 16 15 15 15 15 15 15 15 14 14 13 13 13 13 13 14 14 15 16 17 20 22 23 24 24 23 23 23 23 22 22 22 22 21 18 17 16 14 12 11 11 11 13 14 14 14
13 9 6 4 3 3 3 3 3 3 4 4 4 5 5 6 7 7 8 9 10 11 12 13 14 15 16 16 17 17 18 19 19 20 20 21 21 21 20 19 19 18 18 18 18 17 16 16 15 14 14 14 14 15 15 15 16 16 17 18 19 20 21 23 24 26 26 27 27 26 26 25 24 22 20 18 17 15 13 12 11 11 13 14 14
10 8 6 5 5 5 5 5 5 6 7 8 8 9 10 10 11 12 13 14 15 16 17 17 18 18 19 19 20 20 21 21 22 22 23 23 23 23 23 23 22 22 21 21 21 21 20 20 19 19 19 18 19 19 19 18 19 19 20 20 20 20 20 19 20 21 22 24 25 26 27 26 25 23 21 21 20 18 15 14 12 11 12 13 13
10 9 9 8 8 8 9 9 10 11 12 13 14 15 16 16 17 18 19 19 20 20 21 21 21 21 22 22 22 23 23 23 24 24 24 24 24 24 24 24 24 23 23 23 23 23 23 23 23 22 22 22 22 21 21 21 20 21 21 22 23 23 23 23 22 21 21 20 21 22 23 24 24 23 22 22 22 20 18 16 14 13 12 13 14
9 9 9 10 11 12 13 14 16 17 18 18 19 20 20 20 21 21 21 22 22 22 22 22 22 23 23 23 23 23 23 23 23 23 23 23 22 22 22 22 22 22 22 22 22 22 22 22 21 21 20 19 19 18 18 18 18 18 19 19 20 21 22 23 24 24 24 23 22 22 21 22 23 23 22 22 22 22 21 19 17 16 15 13 13
6 6 7 9 10 11 13 14 15 17 18 19 20 21 21 21 21 21 21 21 21 21 21 22 22 22 22 22 22 21 21 21 20 20 20 20 20 20 20 21 21 21 21 21 21 21 20 20 19 18 17 16 16 15 15 15 15 16 16 16 16 17 17 18 19 20 21 21 21 21 21 22 23 23 22 23 24 25 24 23 21 19 17 15 14
4 5 7 8 9 10 12 13 15 16 17 19 20 22 22 22 22 22 21 21 21 21 21 21 21 21 21 21 20 20 19 19 18 18 18 18 19 19 20 20 21 21 21 22 21 21 21 20 19 18 17 17 17 17 17 17 17 17 17 17 17 17 17 17 17 17 17 18 18 19 20 21 21 21 21 23 26 26 26 25 23 21 20 18 16
Wind_Direction
242 243 244 244 244 243 240 240 242 239 235 237 240 239 239 240 238 234 233 233 236 244 250 253 257 260 262 261 262 269 278 285 284 277 267 256 245 239 236 233 231 233 238 241 245 247 249 251 254 259 263 265 266 267 268 270 273 274 275 275 275 276 276 274 275 276 272 267 269 271 270 269 270 272 274 275 278 283 287 290 293 296 298 299 300
246 245 245 245 245 246 244 242 243 241 239 239 241 241 241 239 237 236 236 234 237 243 247 252 256 257 256 257 260 263 266 272 277 279 277 268 259 250 243 239 236 235 239 244 248 251 253 254 255 259 263 265 265 266 267 269 272 274 275 275 275 275 274 274 275 277 276 271 266 264 265 268 271 273 274 276 279 282 286 289 292 294 296 298 298
249 248 247 247 247 248 246 245 244 242 241 240 241 243 242 237 234 235 236 235 238 241 245 251 256 255 252 253 257 262 263 264 267 272 277 273 266 260 253 248 242 240 241 244 247 251 253 255 257 260 264 266 268 269 270 271 273 277 278 277 276 275 274 275 277 279 282 280 275 271 270 270 272 274 278 280 282 284 286 289 292 294 295 296 296
251 249 249 248 248 248 247 246 245 243 243 243 243 245 243 236 232 234 235 235 237 239 242 249 253 252 250 249 253 260 263 262 262 266 271 273 269 265 261 258 253 249 246 244 247 251 253 256 257 261 265 269 273 276 278 280 282 283 283 282 280 278 277 277 278 280 283 284 283 282 281 280 279 280 283 284 285 287 290 292 294 294 294 295 296
251 251 250 249 248 248 248 247 246 245 245 246 246 247 243 237 234 235 236 236 237 239 241 246 249 250 249 249 252 259 264 263 262 265 270 271 269 265 264 264 263 262 259 255 254 255 258 261 263 266 269 272 276 280 284 286 286 286 285 284 283 281 278 277 276 277 279 282 286 287 287 287 286 286 287 289 290 289 290 292 293 293 293 295 297
253 252 252 250 249 249 248 247 247 247 248 249 250 249 246 241 238 238 240 240 241 241 243 245 247 248 250 252 255 260 265 265 262 263 267 268 266 265 265 267 269 270 268 265 262 262 263 266 269 271 272 276 280 283 284 285 284 284 283 283 282 279 276 275 274 275 277 281 285 287 289 291 290 289 290 292 291 290 291 292 291 290 292 294 297
255 254 254 253 252 252 251 250 250 250 251 251 252 252 249 245 243 242 242 243 245 245 245 246 246 248 250 253 256 260 264 265 262 260 261 263 263 264 266 268 270 272 272 271 269 268 268 269 271 273 275 278 282 284 286 287 285 285 284 282 281 278 277 276 274 274 275 278 282 284 287 290 289 291 294 294 291 290 294 294 291 292 294 295 297
260 259 257 256 257 257 256 255 253 252 253 253 253 253 252 249 247 245 244 244 245 247 247 247 247 248 250 252 255 258 260 261 260 259 258 259 261 263 266 269 271 272 273 272 272 271 271 272 273 274 275 277 281 284 286 287 287 287 286 285 284 281 279 278 275 274 274 276 279 282 284 285 287 291 296 296 295 294 295 293 290 294 298 299 302
264 263 260 260 262 263 263 260 256 254 253 253 253 253 253 252 250 248 246 245 245 247 248 248 248 249 250 252 254 256 258 258 258 258 258 258 261 263 266 269 271 272 272 272 272 271 272 273 274 276 276 277 279 281 281 283 284 284 284 284 283 282 282 279 275 274 273 274 276 278 280 281 283 289 293 296 298 297 294 291 290 293 297 299 303
268 267 265 265 266 268 267 263 259 256 255 254 255 255 255 254 252 251 250 249 248 248 249 250 249 249 250 252 254 255 256 255 255 257 258 259 261 263 265 267 269 271 272 271 271 270 271 274 276 277 277 277 278 279 280 280 280 280 281 280 278 277 279 279 277 275 273 272 274 275 274 276 279 284 289 292 296 295 292 290 290 292 296 298 300
274 271 270 271 270 268 266 263 262 261 260 258 257 257 257 256 255 253 252 252 252 251 251 251 251 250 250 252 253 254 255 254 254 256 257 259 261 263 265 267 268 269 270 270 270 271 272 274 276 278 278 278 279 280 280 281 282 281 279 277 274 274 275 276 275 274 272 271 272 272 270 271 275 279 284 289 291 291 289 288 288 291 295 298 299
279 276 276 275 269 263 263 268 271 272 270 266 261 259 259 258 256 255 255 254 254 254 253 253 253 252 251 252 253 254 254 254 254 255 256 257 259 262 265 267 268 269 269 270 271 272 274 275 276 278 278 278 280 282 282 283 284 284 284 285 283 279 276 276 274 272 272 272 271 271 271 270 271 274 280 285 287 287 287 287 287 290 292 294 297
281 279 278 273 266 266 272 276 274 273 272 271 266 263 262 261 258 257 256 256 257 256 256 256 255 254 252 252 253 254 254 254 254 255 256 257 258 261 264 266 268 270 270 271 273 274 276 277 277 278 278 280 284 284 284 285 286 287 290 292 291 285 278 276 275 272 271 271 269 268 270 269 268 271 278 282 282 284 286 287 288 289 289 291 296
283 282 278 272 270 274 278 276 273 271 270 269 267 266 266 265 262 260 259 258 258 258 258 258 258 257 255 255 255 256 256 256 256 256 257 258 259 261 264 266 268 270 271 272 274 275 276 278 279 279 279 282 286 286 287 289 289 288 288 289 290 287 279 273 273 271 266 265 266 268 270 270 267 269 274 276 277 280 283 286 287 287 289 291 294
297 291 283 278 277 278 280 280 280 279 275 270 269 268 266 264 263 263 263 261 260 259 260 260 260 260 260 259 259 259 259 259 260 260 260 260 260 262 265 267 269 271 271 272 273 274 275 278 280 280 281 283 286 287 289 290 289 288 288 288 289 289 284 279 279 275 266 261 264 269 271 270 266 263 266 270 272 276 279 282 284 286 289 291 292
321 309 296 289 287 286 286 286 286 286 282 276 274 272 270 267 265 265 266 265 264 263 262 261 262 263 263 263 263 264 264 264 264 264 265 265 265 266 267 269 271 272 272 272 273 275 277 280 281 282 283 284 285 287 289 290 288 288 289 289 289 289 288 285 282 279 270 261 260 264 265 264 261 257 259 265 270 274 276 277 281 285 289 290 289
328 321 308 300 296 294 291 289 290 290 287 283 281 280 277 273 271 269 269 270 269 267 264 263 263 264 265 265 265 267 268 268 269 269 270 270 270 270 270 271 272 273 273 274 275 277 278 280 282 283 284 284 285 288 290 291 289 289 289 289 289 287 286 284 281 277 268 259 258 261 260 257 255 253 255 261 265 267 270 275 282 287 287 287 288
329 325 319 311 305 302 298 295 295 294 291 289 290 289 285 281 278 273 270 272 275 272 268 267 266 266 267 267 267 269 271 272 273 273 273 273 273 272 271 272 273 274 275 275 276 277 278 279 281 282 283 284 286 289 290 290 289 290 290 288 286 284 283 281 277 268 256 251 256 261 258 253 251 250 250 253 257 261 268 277 284 286 285 285 287
337 332 327 320 315 313 309 306 304 302 298 296 296 293 288 284 283 278 273 274 278 277 273 271 270 269 268 269 269 270 273 274 275 275 276 276 275 275 275 275 275 276 277 278 279 280 281 281 283 284 285 286 288 288 287 285 284 285 285 282 280 281 281 277 270 258 246 247 256 258 255 250 246 245 245 247 254 261 269 278 283 284 283 283 285
344 338 331 325 322 321 317 314 311 309 305 300 297 294 289 286 285 282 279 278 280 277 274 274 275 274 272 271 272 272 273 275 276 277 277 277 277 278 277 277 278 279 281 283 284 284 285 287 288 287 287 287 287 285 282 280 279 278 278 278 280 283 283 273 262 257 253 254 257 254 249 244 242 242 243 247 256 265 271 276 280 280 281 282 284
347 346 339 332 327 321 317 313 312 312 310 304 301 299 296 293 290 286 283 282 283 281 277 276 277 276 276 276 276 275 276 277 278 279 279 279 279 280 279 279 280 282 283 285 285 286 288 290 289 288 286 285 282 277 275 276 275 272 273 278 282 283 278 260 253 256 259 260 256 248 242 240 241 242 246 253 262 269 274 276 278 280 282 285 288
355 352 343 333 324 316 311 307 306 308 308 304 302 303 303 300 294 288 283 281 281 281 280 278 277 277 277 278 278 278 279 280 281 283 283 282 281 281 281 281 281 282 282 283 284 285 286 288 288 285 282 281 277 271 267 266 266 268 272 275 274 270 263 255 252 253 257 258 253 247 244 247 250 252 259 267 271 275 277 278 280 284 287 289 288
6 3 358 351 342 329 318 311 307 305 303 300 297 299 301 300 297 293 287 283 281 279 280 282 282 282 282 281 280 280 282 283 284 285 283 281 280 280 279 280 279 279 279 279 280 282 283 286 285 280 277 278 274 265 258 258 261 266 268 264 260 257 254 252 250 252 256 256 252 250 253 258 264 270 275 278 279 281 282 282 285 288 289 289 287
12 12 10 6 359 345 330 321 313 308 306 304 301 299 298 298 299 299 295 290 286 284 284 284 284 285 285 285 283 281 278 278 282 285 284 281 281 280 278 277 276 275 275 275 276 277 279 281 281 276 272 272 268 260 258 260 260 257 253 250 253 256 257 256 256 257 258 256 256 260 263 267 274 280 283 284 286 285 284 284 287 289 289 288 286
26 25 21 18 14 1 347 341 334 326 323 320 316 310 305 303 303 301 295 290 287 287 287 286 285 286 287 288 287 283 276 274 278 283 284 281 279 279 277 276 275 274 276 278 278 277 277 278 276 270 261 256 254 251 251 250 246 243 244 248 254 258 260 260 258 257 260 264 269 273 276 280 285 289 290 289 287 285 285 287 290 291 290 288 287
39 39 38 39 38 32 26 24 20 13 6 0 354 348 341 332 325 317 310 305 305 305 304 304 305 307 306 305 300 290 282 279 279 281 281 277 274 273 273 273 272 272 273 274 273 271 269 265 259 247 235 232 233 231 230 231 232 237 243 248 253 257 259 262 266 273 279 280 281 285 290 293 293 290 288 287 288 290 292 294 292 289 287 288 291
43 43 43 42 42 41 41 43 43 41 38 36 35 32 27 21 22 32 39 43 50 53 52 48 44 39 35 32 26 13 353 333 319 313 311 306 298 290 284 279 275 273 271 270 273 272 266 256 241 210 194 194 195 210 229 241 249 255 260 266 273 282 296 308 313 313 308 300 294 294 295 290 286 285 289 294 301 305 306 303 296 290 292 297 301
46 46 45 44 44 44 44 44 44 43 44 46 48 48 44 40 39 42 45 45 48 51 52 51 51 50 49 47 46 48 52 54 52 48 44 40 34 26 18 10 1 348 335 333 344 349 346 9 70 85 98 109 197 259 272 281 285 292 302 312 323 333 337 338 338 332 323 312 295 280 277 275 278 290 300 305 309 312 315 312 306 304 304 305 306
50 49 48 47 46 47 46 45 44 45 45 44 45 49 49 45 42 41 40 35 30 28 28 31 35 38 42 46 46 45 46 48 47 44 41 40 40 38 37 39 41 42 42 43 43 39 36 37 42 49 53 47 39 32 25 19 16 16 15 10 5 355 341 331 325 317 303 270 241 251 269 279 286 289 292 293 292 291 290 291 290 293 300 307 317
53 53 51 49 47 47 47 47 46 47 47 47 47 49 49 44 40 38 37 34 29 22 15 15 17 19 25 37 46 49 50 51 51 49 47 45 43 41 40 39 37 33 33 35 37 39 41 42 42 41 40 38 35 31 26 19 15 11 4 358 353 342 326 312 299 275 243 236 255 270 275 278 286 297 311 314 306 297 288 279 275 283 295 308 319
54 54 53 51 50 48 47 45 44 44 44 45 44 44 45 45 44 45 46 46 45 42 37 36 35 32 27 27 36 43 44 44 45 44 43 42 42 42 42 39 35 31 30 29 29 32 37 40 39 37 35 34 30 24 18 10 3 357 349 341 329 312 298 279 243 230 242 259 269 281 294 306 317 325 331 328 318 307 293 278 271 277 289 303 311
52 52 51 48 46 44 42 42 43 43 43 42 41 43 48 51 52 52 52 52 51 49 47 45 45 46 47 46 43 42 39 38 38 38 37 37 38 39 40 39 37 36 35 32 30 31 34 35 36 35 35 33 29 24 21 15 7 360 355 347 322 271 262 262 251 257 275 289 304 318 320 322 322 323 325 320 311 304 297 282 274 278 288 299 307
53 51 49 46 42 40 40 42 44 46 45 43 43 47 51 51 50 49 50 51 51 48 45 44 43 41 41 41 40 38 36 35 35 36 37 36 35 33 33 31 30 32 33 30 28 28 26 23 20 17 16 20 27 34 37 33 25 22 18 356 320 285 285 296 303 306 307 301 298 301 317 331 331 329 326 317 305 298 295 289 284 287 295 304 309
49 47 47 46 44 42 40 39 40 40 40 41 45 49 48 45 42 41 44 48 48 46 44 44 43 39 37 37 38 38 36 34 34 36 37 37 35 31 28 25 24 26 28 24 18 12 7 4 4 12 25 41 52 51 46 39 33 26 15 3 350 336 326 319 317 320 313 267 250 343 354 351 349 348 345 339 328 314 303 297 296 301 307 313 317
43 42 41 41 42 41 40 37 34 32 30 32 36 41 43 42 41 41 42 42 41 40 39 38 37 36 36 41 49 54 55 53 50 46 44 42 42 44 46 50 53 52 51 51 49 48 46 43 44 48 51 51 50 47 42 37 33 28 18 6 356 345 339 338 339 340 307 276 342 17 28 31 30 29 27 25 20 6 345 324 313 311 311 313 315
35 37 37 35 34 33 33 33 34 33 29 26 30 37 42 43 42 40 39 36 33 33 33 31 31 32 34 36 43 51 55 55 52 49 48 48 49 51 54 58 59 59 58 58 58 58 59 60 61 59 57 56 56 55 53 51 49 45 40 31 18 3 352 346 336 316 298 322 60 66 62 51 44 39 36 34 33 28 17 2 343 330 321 316 315
21 24 27 28 28 25 22 23 28 33 31 28 31 35 35 33 31 29 28 27 27 29 31 31 32 34 34 33 32 32 33 35 37 42 45 47 49 52 53 53 53 52 52 53 54 54 54 56 59 60 61 64 68 68 65 63 60 56 51 46 40 34 28 27 29 61 109 109 97 79 62 48 41 37 33 29 26 24 21 15 7 356 342 330 324
12 13 11 10 11 13 12 11 16 24 29 28 26 25 22 20 20 21 21 20 22 25 28 30 30 31 30 29 26 21 11 4 7 17 23 28 37 44 46 46 42 36 34 37 43 47 47 45 41 40 40 43 50 55 57 58 59 61 56 49 44 43 48 60 79 99 114 113 90 51 45 41 32 26 24 21 17 14 13 12 11 7 359 348 338
355 358 359 358 357 356 355 354 355 3 12 15 12 10 8 9 12 13 13 13 14 15 17 20 22 23 21 18 16 13 9 6 8 7 359 359 7 14 15 18 19 15 13 13 14 22 31 30 23 17 12 5 359 354 351 358 13 33 49 52 50 47 48 61 83 99 105 78 18 3 7 12 11 11 11 11 9 6 4 4 5 5 3 357 349
334 335 335 335 335 334 334 334 334 338 347 355 356 354 352 354 359 5 7 9 11 10 9 10 13 15 14 10 7 5 6 11 17 17 10 3 358 349 342 338 338 337 337 337 335 338 347 353 351 349 348 346 341 334 323 315 314 320 326 347 40 46 39 34 31 6 309 309 322 325 327 331 339 347 353 358 1 0 360 360 0 360 358 356 354
321 318 315 314 316 317 319 321 322 322 327 334 338 341 341 342 344 351 358 3 6 5 3 2 4 6 7 4 360 355 354 360 7 12 13 13 8 358 349 340 330 321 314 312 311 307 303 305 307 307 308 309 309 310 308 301 296 297 296 291 283 274 270 289 300 288 271 267 276 285 291 297 307 321 333 342 348 352 354 356 357 357 357 355 353
325 318 309 305 305 307 312 318 323 322 316 315 320 326 327 324 321 323 330 336 342 346 347 349 350 351 351 351 349 343 338 340 345 349 353 357 358 356 353 346 339 333 327 321 315 307 300 298 297 293 290 288 281 276 276 280 283 285 286 285 281 274 266 264 267 266 259 256 259 267 272 276 282 294 309 322 331 338 345 349 350 352 354 353 352
328 322 314 308 305 305 309 315 323 323 311 303 304 305 301 299 301 305 311 317 321 326 328 329 331 331 330 332 333 329 325 326 330 333 338 341 342 343 344 342 338 334 329 323 318 311 305 302 301 298 297 295 290 283 276 269 267 268 271 273 274 274 272 269 268 268 264 259 260 267 274 275 274 277 287 299 309 319 329 337 340 342 345 348 349
330 329 329 325 317 308 306 309 317 321 312 297 289 280 277 285 293 295 301 307 308 312 316 318 319 320 320 320 320 319 319 321 323 326 328 330 330 331 333 332 329 325 319 314 310 306 301 298 297 298 299 299 298 296 292 284 273 265 262 262 262 264 266 266 267 270 271 269 268 272 278 280 278 275 275 280 287 298 310 321 327 330 333 338 343
334 338 343 339 320 300 295 299 306 306 293 280 276 274 279 289 295 299 304 307 307 309 313 315 316 318 318 318 319 320 321 322 322 322 323 324 324 324 324 323 320 317 313 310 306 301 297 294 292 291 292 292 292 293 293 292 289 282 275 270 267 266 266 265 265 266 268 269 270 272 275 277 278 276 272 271 275 281 290 300 309 316 321 327 333
336 339 342 327 295 279 281 280 280 282 285 288 292 298 302 305 307 309 311 310 310 311 312 312 313 314 315 316 317 318 318 317 317 317 316 316 315 316 315 313 312 310 307 305 301 296 293 291 289 287 288 288 289 290 289 289 290 291 291 290 287 282 278 274 271 269 269 269 270 271 273 275 276 275 270 267 267 270 275 280 287 299 308 314 321
329 320 311 299 290 290 292 292 294 299 302 303 304 305 307 308 309 310 310 309 309 309 309 308 309 310 310 311 311 311 311 311 311 311 310 310 310 310 309 308 308 308 307 305 303 300 297 296 295 294 293 293 292 292 291 289 287 287 287 288 290 291 290 288 285 281 278 275 273 272 272 272 274 275 270 264 261 263 267 270 272 282 294 302 308
323 310 301 298 297 298 298 300 303 303 304 305 306 306 307 307 306 306 305 305 304 304 303 303 303 303 303 303 304 304 305 306 305 305 306 307 307 308 308 308 308 309 308 308 307 306 304 304 302 302 301 300 299 298 296 293 289 284 281 279 279 280 282 284 285 286 286 285 281 277 274 272 272 272 268 262 257 256 258 262 264 269 279 289 298
326 317 311 308 308 307 307 308 307 306 306 305 304 304 305 305 304 304 304 302 302 301 300 300 300 300 301 301 302 303 304 304 305 306 307 308 309 310 310 310 311 311 311 311 311 311 311 311 310 309 308 306 304 301 298 295 291 288 284 282 281 279 278 278 278 279 280 281 280 278 274 272 271 268 261 255 253 252 253 255 258 261 266 277 288
329 329 328 326 325 324 322 321 320 320 320 318 315 313 310 308 307 306 306 305 304 304 304 305 306 307 307 308 309 309 310 310 311 311 312 312 312 312 311 311 312 312 313 314 315 316 316 317 316 316 315 312 309 307 304 302 301 300 298 298 296 294 291 288 285 282 281 281 279 277 273 271 272 269 259 249 247 248 250 252 254 255 258 266 277
319 332 337 337 337 337 335 335 335 334 332 330 326 322 318 314 311 311 311 311 310 310 310 311 312 313 314 314 314 314 314 314 313 312 311 310 309 308 308 308 309 310 311 313 314 315 316 317 317 316 315 313 311 310 308 307 307 308 308 308 307 306 304 303 300 297 293 290 288 286 282 280 281 279 267 253 247 248 249 251 252 253 254 257 264
Height
1502 1503 1505 1506 1507 1508 1509 1510 1511 1512 1513 1514 1515 1516 1517 1518 1520 1521 1522 1522 1524 1524 1526 1527 1527 1528 1529 1529 1529 1530 1530 1530 1530 1529 1529 1529 1529 1529 1529 1530 1530 1531 1531 1531 1532 1532 1533 1533 1534 1534 1534 1535 1535 1535 1535 1536 1536 1536 1536 1536 1536 1536 1536 1535 1535 1534 1535 1535 1535 1534 1534 1533 1533 1533 1532 1532 1531 1530 1528 1527 1526 1525 1524 1522 1521
1500 1501 1503 1504 1505 1506 1507 1508 1509 1509 1510 1511 1512 1513 1514 1516 1517 1519 1520 1520 1521 1522 1523 1524 1525 1526 1527 1527 1528 1528 1528 1528 1528 1528 1528 1528 1528 1528 1528 1528 1528 1528 1529 1529 1530 1530 1531 1531 1532 1532 1532 1533 1533 1533 1534 1534 1534 1534 1534 1534 1534 1534 1534 1533 1533 1532 1532 1533 1533 1532 1532 1531 1531 1531 1530 1529 1528 1527 1526 1525 1524 1522 1521 1520 1519
1498 1500 1501 1502 1503 1504 1505 1506 1507 1507 1508 1508 1509 1510 1511 1513 1515 1516 1517 1518 1519 1520 1521 1522 1523 1524 1524 1525 1526 1526 1527 1527 1527 1527 1527 1527 1527 1527 1527 1526 1526 1526 1527 1527 1528 1528 1529 1529 1530 1531 1530 1530 1531 1532 1532 1532 1532 1532 1532 1532 1532 1532 1531 1531 1530 1529 1529 1529 1529 1530 1530 1529 1528 1528 1527 1526 1525 1524 1523 1522 1521 1520 1519 1518 1516
1495 1497 1498 1499 1501 1502 1503 1504 1504 1505 1505 1506 1507 1508 1509 1510 1512 1513 1515 1516 1517 1518 1519 1520 1520 1521 1522 1523 1524 1524 1525 1525 1525 1525 1525 1525 1525 1525 1525 1525 1525 1525 1525 1526 1526 1527 1527 1528 1529 1529 1529 1529 1529 1530 1530 1530 1530 1530 1529 1529 1529 1529 1529 1528 1528 1527 1526 1525 1525 1526 1526 1526 1525 1525 1524 1523 1522 1521 1520 1519 1519 1517 1516 1515 1514
1492 1493 1495 1496 1497 1498 1500 1501 1501 1502 1503 1504 1505 1506 1507 1508 1510 1511 1513 1514 1515 1516 1517 1517 1518 1518 1519 1520 1521 1522 1522 1523 1523 1523 1523 1524 1524 1524 1524 1524 1524 1524 1525 1525 1526 1526 1526 1526 1527 1527 1527 1527 1527 1528 1528 1528 1528 1527 1527 1527 1527 1526 1526 1525 1525 1524 1523 1522 1522 1523 1523 1522 1522 1521 1521 1520 1519 1518 1517 1517 1516 1514 1513 1512 1512
1490 1490 1491 1492 1493 1494 1495 1497 1498 1499 1500 1501 1502 1504 1505 1506 1508 1509 1510 1512 1513 1514 1514 1515 1515 1516 1517 1518 1518 1519 1520 1520 1521 1521 1521 1522 1522 1522 1522 1523 1523 1523 1524 1524 1525 1525 1525 1525 1525 1525 1525 1525 1525 1526 1526 1526 1526 1525 1525 1525 1525 1524 1523 1523 1522 1522 1521 1520 1519 1519 1519 1519 1518 1518 1518 1517 1516 1515 1514 1513 1513 1512 1511 1510 1510
1488 1489 1489 1489 1490 1491 1492 1493 1495 1496 1498 1499 1500 1501 1502 1504 1505 1506 1508 1509 1510 1511 1512 1512 1513 1514 1514 1515 1516 1516 1517 1517 1518 1518 1519 1519 1520 1520 1520 1521 1521 1522 1522 1523 1523 1523 1523 1523 1523 1523 1523 1523 1523 1524 1524 1524 1523 1523 1523 1523 1522 1522 1521 1520 1520 1519 1518 1517 1517 1516 1516 1516 1515 1515 1515 1514 1513 1512 1511 1510 1509 1509 1509 1508 1507
1485 1486 1487 1487 1488 1489 1490 1491 1492 1494 1496 1497 1498 1499 1500 1501 1502 1503 1505 1506 1507 1508 1509 1510 1510 1511 1512 1512 1513 1514 1514 1514 1515 1516 1516 1517 1517 1518 1518 1519 1519 1520 1520 1521 1521 1521 1521 1521 1521 1521 1521 1521 1521 1522 1522 1522 1521 1521 1520 1520 1520 1519 1518 1518 1517 1516 1515 1514 1514 1513 1513 1513 1512 1512 1512 1511 1510 1509 1509 1507 1505 1505 1505 1504 1504
1482 1483 1484 1485 1485 1487 1488 1489 1490 1492 1493 1494 1495 1496 1497 1498 1499 1500 1501 1502 1503 1505 1506 1507 1508 1508 1509 1509 1510 1511 1511 1511 1512 1513 1514 1514 1515 1516 1516 1517 1517 1518 1518 1518 1518 1518 1518 1518 1518 1518 1518 1519 1519 1519 1519 1519 1519 1518 1517 1517 1516 1516 1515 1515 1514 1512 1512 1511 1510 1510 1510 1509 1509 1509 1509 1509 1508 1507 1506 1504 1503 1503 1502 1501 1500
1480 1481 1481 1482 1483 1485 1485 1486 1487 1489 1491 1492 1493 1494 1494 1495 1496 1497 1498 1499 1500 1501 1502 1504 1504 1505 1506 1506 1507 1507 1507 1508 1509 1510 1511 1512 1512 1513 1514 1514 1514 1515 1515 1515 1515 1515 1515 1515 1515 1515 1516 1516 1516 1516 1516 1516 1515 1515 1514 1513 1512 1512 1512 1511 1510 1509 1509 1507 1507 1507 1506 1506 1506 1507 1506 1506 1505 1504 1503 1502 1500 1500 1499 1498 1497
1478 1479 1479 1479 1481 1482 1483 1485 1487 1488 1489 1490 1490 1491 1491 1492 1493 1494 1495 1496 1497 1498 1499 1500 1501 1502 1503 1503 1503 1504 1504 1505 1506 1507 1508 1509 1510 1510 1511 1511 1511 1511 1511 1511 1511 1512 1512 1512 1512 1512 1512 1512 1512 1513 1512 1512 1512 1511 1510 1509 1508 1508 1508 1507 1507 1506 1505 1504 1504 1504 1503 1502 1503 1504 1503 1503 1502 1501 1500 1499 1498 1497 1496 1494 1493
1476 1476 1476 1477 1479 1480 1482 1484 1485 1486 1486 1486 1486 1487 1488 1488 1489 1490 1491 1493 1494 1495 1496 1496 1497 1498 1499 1499 1499 1499 1500 1501 1502 1503 1504 1505 1506 1507 1507 1507 1508 1508 1508 1507 1508 1508 1508 1508 1508 1508 1508 1508 1509 1509 1508 1507 1507 1506 1504 1503 1504 1504 1503 1503 1502 1502 1501 1500 1500 1500 1500 1499 1500 1500 1500 1500 1499 1498 1497 1497 1496 1495 1493 1492 1490
1473 1473 1474 1477 1478 1478 1480 1481 1481 1482 1482 1482 1483 1484 1484 1484 1485 1486 1488 1489 1491 1492 1492 1493 1493 1494 1494 1494 1495 1495 1496 1497 1498 1500 1501 1502 1503 1503 1503 1504 1504 1503 1503 1503 1504 1504 1504 1504 1503 1503 1503 1504 1504 1504 1503 1502 1502 1501 1500 1498 1499 1499 1498 1497 1497 1497 1497 1496 1495 1495 1496 1496 1496 1496 1497 1496 1495 1495 1494 1494 1493 1492 1491 1489 1488
1471 1472 1474 1475 1475 1475 1476 1476 1476 1477 1478 1479 1480 1480 1481 1481 1482 1483 1484 1485 1487 1488 1488 1489 1489 1490 1490 1490 1490 1491 1491 1492 1494 1495 1497 1498 1499 1499 1500 1500 1500 1499 1499 1499 1499 1499 1499 1499 1499 1499 1499 1499 1499 1499 1498 1497 1496 1496 1495 1494 1493 1492 1492 1493 1492 1492 1492 1492 1491 1491 1492 1492 1493 1493 1493 1493 1492 1492 1491 1490 1490 1489 1488 1487 1485
1471 1472 1473 1472 1472 1472 1472 1472 1472 1473 1474 1475 1476 1477 1477 1477 1478 1479 1480 1481 1482 1483 1484 1485 1486 1486 1487 1487 1487 1487 1487 1489 1491 1492 1493 1494 1495 1496 1496 1495 1495 1495 1495 1495 1495 1495 1495 1495 1495 1494 1494 1494 1495 1494 1493 1492 1491 1490 1490 1489 1488 1487 1486 1487 1488 1487 1488 1488 1488 1488 1488 1489 1489 1489 1489 1489 1488 1488 1488 1487 1487 1486 1485 1484 1483
1469 1470 1470 1469 1469 1470 1470 1469 1469 1469 1470 1472 1472 1472 1473 1474 1474 1476 1476 1477 1478 1479 1480 1481 1482 1483 1483 1484 1484 1483 1484 1486 1488 1488 1489 1490 1491 1492 1492 1491 1491 1491 1490 1491 1491 1491 1491 1491 1490 1490 1489 1489 1489 1489 1488 1486 1484 1484 1484 1484 1483 1482 1481 1482 1483 1483 1483 1484 1484 1484 1484 1485 1485 1485 1485 1485 1485 1485 1485 1484 1484 1483 1483 1481 1480
1468 1468 1468 1467 1467 1467 1467 1467 1467 1467 1468 1468 1469 1469 1469 1470 1471 1472 1473 1473 1474 1475 1476 1477 1478 1479 1479 1480 1480 1480 1480 1483 1484 1484 1485 1486 1487 1487 1487 1487 1487 1486 1486 1486 1486 1486 1486 1486 1486 1485 1484 1483 1484 1484 1483 1480 1478 1478 1479 1478 1477 1476 1476 1477 1478 1478 1479 1479 1480 1480 1480 1481 1481 1481 1481 1481 1481 1482 1481 1481 1481 1481 1480 1478 1477
1467 1467 1466 1466 1465 1465 1465 1465 1465 1465 1466 1466 1466 1466 1467 1468 1468 1469 1469 1470 1470 1471 1472 1473 1474 1475 1475 1475 1476 1476 1476 1478 1480 1480 1481 1482 1483 1483 1483 1482 1482 1481 1480 1481 1481 1481 1481 1481 1481 1480 1479 1478 1479 1479 1478 1476 1473 1473 1473 1472 1471 1470 1471 1472 1472 1473 1474 1475 1475 1476 1476 1477 1477 1477 1477 1477 1477 1478 1478 1478 1478 1478 1476 1475 1473
1466 1466 1465 1464 1464 1463 1463 1463 1463 1463 1464 1464 1463 1464 1464 1464 1464 1465 1466 1467 1467 1468 1469 1469 1470 1470 1471 1471 1472 1473 1472 1473 1475 1476 1476 1477 1478 1478 1478 1478 1476 1475 1476 1476 1476 1476 1475 1476 1476 1475 1474 1474 1474 1473 1472 1470 1469 1468 1468 1467 1465 1464 1466 1467 1467 1467 1469 1470 1471 1472 1472 1473 1473 1473 1474 1474 1474 1474 1475 1475 1476 1475 1473 1472 1471
1465 1464 1463 1463 1462 1462 1461 1462 1462 1462 1462 1462 1461 1461 1461 1462 1462 1462 1463 1464 1464 1465 1465 1465 1466 1466 1467 1468 1468 1469 1469 1469 1470 1471 1472 1473 1473 1473 1473 1472 1471 1471 1471 1471 1470 1470 1470 1470 1470 1470 1469 1469 1468 1467 1466 1465 1464 1464 1464 1463 1461 1461 1463 1464 1464 1464 1466 1466 1467 1468 1469 1469 1470 1470 1471 1471 1471 1471 1472 1472 1472 1471 1470 1469 1468
1464 1463 1462 1461 1461 1460 1460 1460 1460 1460 1460 1460 1460 1460 1460 1461 1461 1461 1461 1461 1461 1461 1461 1462 1462 1462 1463 1464 1464 1465 1465 1465 1465 1467 1467 1468 1468 1468 1468 1467 1467 1466 1466 1465 1465 1464 1464 1465 1464 1464 1463 1462 1462 1461 1461 1460 1460 1460 1459 1459 1459 1460 1461 1461 1461 1462 1463 1463 1464 1465 1466 1466 1467 1467 1468 1468 1469 1469 1469 1469 1469 1468 1467 1466 1465
1464 1463 1462 1461 1460 1460 1460 1459 1459 1459 1459 1458 1458 1458 1459 1459 1459 1459 1458 1458 1458 1458 1458 1459 1459 1458 1459 1460 1460 1461 1461 1461 1461 1462 1462 1463 1463 1462 1462 1462 1462 1461 1461 1460 1459 1459 1460 1460 1459 1459 1458 1457 1456 1455 1455 1456 1456 1456 1456 1457 1457 1457 1457 1457 1458 1459 1459 1460 1461 1462 1463 1464 1465 1465 1465 1466 1466 1466 1466 1466 1465 1465 1464 1463 1462
1464 1463 1462 1461 1461 1460 1459 1458 1458 1458 1458 1457 1457 1457 1457 1457 1456 1456 1456 1456 1455 1455 1455 1456 1456 1455 1455 1456 1457 1457 1457 1457 1457 1457 1457 1457 1457 1457 1456 1456 1457 1456 1455 1455 1455 1454 1455 1455 1455 1454 1453 1452 1452 1451 1451 1452 1452 1453 1453 1454 1454 1454 1454 1454 1455 1456 1457 1458 1459 1460 1461 1462 1462 1463 1463 1463 1463 1462 1463 1463 1462 1461 1460 1460 1459
1465 1464 1463 1462 1461 1460 1459 1458 1457 1456 1456 1456 1456 1456 1455 1455 1454 1454 1454 1453 1453 1453 1453 1454 1454 1453 1452 1452 1453 1453 1453 1453 1453 1453 1452 1452 1452 1452 1452 1452 1452 1451 1450 1450 1450 1450 1450 1451 1451 1450 1449 1449 1449 1449 1449 1449 1449 1449 1450 1451 1451 1451 1452 1452 1453 1454 1455 1456 1457 1458 1458 1459 1460 1460 1460 1460 1460 1459 1459 1459 1458 1457 1457 1457 1456
1466 1464 1463 1462 1462 1461 1460 1458 1457 1456 1455 1455 1455 1454 1454 1454 1453 1453 1452 1451 1451 1451 1451 1451 1451 1451 1450 1449 1449 1448 1448 1448 1448 1448 1447 1447 1447 1447 1448 1447 1447 1447 1446 1446 1446 1446 1446 1446 1446 1445 1445 1445 1446 1446 1446 1447 1447 1447 1448 1449 1449 1450 1451 1451 1452 1453 1453 1454 1454 1455 1456 1456 1457 1457 1457 1457 1457 1456 1456 1455 1455 1455 1454 1454 1454
1468 1467 1465 1464 1463 1462 1461 1459 1458 1457 1456 1455 1455 1454 1453 1453 1452 1452 1451 1450 1450 1449 1449 1449 1448 1448 1447 1447 1446 1445 1444 1444 1444 1444 1443 1444 1444 1444 1444 1443 1443 1443 1443 1442 1442 1442 1442 1441 1441 1440 1440 1442 1443 1444 1444 1445 1446 1447 1447 1448 1449 1449 1450 1450 1451 1451 1451 1452 1452 1453 1453 1454 1454 1455 1455 1455 1454 1454 1453 1453 1452 1452 1452 1452 1452
1471 1469 1468 1467 1466 1464 1463 1462 1460 1459 1458 1457 1456 1455 1454 1453 1452 1452 1451 1450 1450 1449 1449 1448 1447 1446 1446 1446 1445 1444 1443 1442 1442 1442 1441 1441 1441 1441 1441 1440 1439 1439 1439 1439 1439 1439 1439 1439 1438 1437 1438 1440 1442 1443 1444 1445 1446 1446 1447 1447 1448 1448 1449 1449 1450 1450 1450 1451 1451 1451 1452 1452 1453 1453 1453 1453 1453 1453 1452 1451 1451 1450 1450 1450 1451
1473 1472 1471 1470 1468 1467 1466 1464 1463 1462 1461 1459 1458 1457 1456 1455 1454 1453 1453 1453 1452 1452 1451 1450 1449 1448 1447 1446 1446 1445 1444 1443 1442 1442 1442 1442 1441 1441 1440 1439 1439 1438 1438 1438 1438 1439 1440 1440 1439 1438 1439 1441 1443 1443 1444 1445 1446 1446 1446 1447 1447 1447 1448 1449 1449 1450 1450 1450 1451 1451 1452 1452 1452 1453 1452 1452 1452 1452 1452 1451 1451 1450 1450 1450 1450
1475 1474 1473 1472 1471 1470 1468 1467 1465 1464 1463 1462 1460 1459 1458 1457 1456 1455 1455 1455 1455 1455 1455 1454 1453 1452 1450 1449 1448 1447 1446 1445 1444 1444 1444 1444 1443 1443 1442 1441 1441 1441 1440 1440 1440 1440 1442 1443 1443 1442 1442 1442 1444 1445 1446 1447 1447 1448 1448 1448 1448 1449 1449 1450 1450 1450 1450 1451 1451 1452 1452 1452 1452 1452 1452 1452 1452 1451 1451 1451 1450 1450 1450 1450 1450
1477 1476 1475 1474 1473 1472 1471 1469 1468 1467 1465 1464 1463 1462 1462 1461 1459 1457 1457 1456 1456 1456 1455 1455 1455 1454 1452 1451 1450 1450 1450 1449 1448 1448 1447 1446 1446 1445 1444 1444 1443 1443 1443 1444 1444 1443 1444 1445 1445 1445 1445 1445 1446 1447 1448 1449 1450 1450 1450 1450 1450 1450 1450 1450 1451 1451 1451 1451 1452 1452 1452 1452 1452 1452 1452 1451 1451 1450 1450 1450 1450 1450 1449 1449 1449
1480 1479 1478 1477 1476 1475 1474 1473 1471 1470 1468 1467 1467 1466 1465 1464 1462 1461 1460 1459 1459 1458 1457 1456 1455 1454 1452 1451 1451 1452 1452 1451 1451 1450 1449 1448 1448 1447 1446 1446 1446 1446 1447 1447 1447 1447 1446 1447 1447 1447 1447 1448 1448 1449 1449 1450 1450 1450 1450 1450 1450 1450 1450 1450 1450 1451 1451 1451 1451 1452 1452 1452 1452 1452 1451 1451 1450 1450 1450 1449 1449 1449 1449 1448 1448
1482 1481 1480 1479 1478 1477 1476 1475 1474 1473 1472 1470 1470 1469 1468 1467 1465 1464 1463 1462 1461 1460 1459 1458 1457 1455 1454 1453 1453 1453 1452 1452 1451 1451 1450 1450 1450 1449 1448 1448 1448 1448 1449 1449 1449 1449 1448 1448 1448 1448 1448 1449 1449 1449 1449 1450 1450 1450 1450 1449 1449 1449 1449 1450 1450 1450 1451 1451 1451 1451 1451 1451 1451 1451 1451 1450 1450 1449 1449 1449 1448 1448 1448 1447 1446
1484 1483 1482 1481 1480 1479 1478 1477 1476 1475 1474 1473 1472 1471 1470 1469 1468 1467 1466 1465 1464 1463 1461 1460 1459 1457 1456 1455 1454 1454 1453 1452 1452 1451 1450 1450 1450 1449 1449 1449 1449 1449 1449 1449 1450 1450 1449 1449 1449 1449 1449 1449 1449 1449 1449 1450 1450 1450 1450 1450 1450 1449 1450 1450 1450 1450 1450 1450 1450 1451 1451 1451 1451 1450 1450 1449 1449 1448 1448 1448 1447 1447 1446 1445 1445
1487 1486 1485 1483 1482 1481 1480 1479 1478 1477 1476 1475 1474 1473 1472 1471 1470 1469 1468 1467 1466 1465 1463 1462 1461 1460 1458 1457 1456 1455 1454 1453 1453 1452 1451 1451 1451 1450 1450 1450 1450 1450 1450 1450 1450 1450 1450 1449 1449 1449 1449 1450 1450 1450 1450 1450 1450 1450 1450 1450 1450 1449 1449 1449 1449 1449 1449 1450 1450 1450 1450 1450 1450 1449 1449 1448 1448 1447 1447 1447 1446 1445 1445 1444 1443
1489 1487 1486 1485 1484 1483 1481 1480 1479 1478 1477 1476 1475 1474 1473 1472 1471 1470 1469 1468 1467 1466 1465 1464 1463 1462 1461 1460 1458 1457 1456 1456 1455 1454 1454 1453 1453 1453 1452 1452 1452 1452 1451 1451 1451 1451 1451 1451 1451 1451 1451 1451 1451 1451 1451 1451 1450 1450 1450 1450 1449 1449 1449 1449 1449 1449 1449 1449 1450 1450 1450 1450 1449 1449 1448 1448 1447 1447 1446 1445 1445 1444 1443 1442 1442
1490 1489 1488 1487 1485 1484 1483 1482 1481 1480 1479 1478 1477 1476 1475 1474 1473 1472 1471 1470 1469 1468 1467 1466 1465 1464 1463 1462 1461 1460 1459 1458 1457 1457 1456 1455 1455 1455 1454 1454 1454 1454 1453 1453 1453 1453 1452 1452 1452 1452 1452 1452 1452 1452 1451 1451 1451 1451 1450 1450 1449 1449 1449 1449 1449 1449 1449 1449 1450 1450 1450 1449 1449 1448 1448 1447 1447 1446 1445 1444 1444 1443 1442 1441 1440
1491 1490 1489 1488 1487 1485 1484 1483 1482 1481 1480 1479 1478 1477 1476 1475 1474 1473 1472 1471 1470 1469 1468 1468 1466 1465 1464 1463 1463 1462 1461 1460 1459 1459 1458 1457 1457 1456 1456 1456 1455 1455 1455 1455 1454 1454 1454 1454 1453 1453 1453 1453 1453 1452 1452 1452 1452 1451 1451 1451 1450 1450 1449 1449 1449 1449 1449 1449 1449 1449 1449 1449 1449 1448 1447 1447 1446 1445 1444 1443 1442 1441 1440 1440 1439
1492 1490 1490 1489 1487 1486 1485 1484 1483 1482 1481 1480 1479 1478 1477 1476 1475 1474 1473 1472 1471 1471 1470 1469 1468 1467 1466 1465 1464 1463 1463 1462 1461 1461 1460 1459 1459 1458 1458 1457 1457 1456 1456 1456 1455 1455 1455 1455 1454 1454 1454 1454 1453 1453 1453 1452 1452 1452 1451 1451 1451 1450 1450 1450 1449 1449 1449 1449 1449 1449 1449 1449 1448 1448 1447 1446 1445 1444 1443 1442 1441 1440 1439 1438 1437
1492 1491 1490 1489 1488 1487 1486 1484 1483 1483 1482 1481 1480 1479 1478 1477 1476 1475 1474 1473 1472 1472 1471 1470 1469 1468 1467 1466 1466 1465 1464 1463 1462 1461 1461 1460 1460 1459 1459 1458 1458 1457 1457 1456 1456 1455 1455 1455 1455 1454 1454 1454 1454 1453 1453 1453 1452 1452 1452 1451 1451 1451 1450 1450 1450 1450 1449 1449 1449 1449 1449 1448 1448 1447 1446 1446 1445 1443 1442 1441 1440 1439 1438 1437 1436
1491 1490 1489 1488 1487 1487 1485 1484 1484 1483 1482 1481 1480 1479 1478 1477 1476 1475 1474 1474 1473 1472 1471 1470 1470 1469 1468 1467 1466 1465 1465 1464 1463 1462 1461 1460 1460 1459 1459 1458 1458 1457 1457 1456 1456 1455 1455 1455 1454 1454 1454 1453 1453 1453 1453 1452 1452 1452 1451 1451 1451 1450 1450 1450 1450 1450 1449 1449 1449 1449 1448 1448 1447 1446 1446 1445 1444 1443 1442 1441 1439 1438 1437 1437 1436
1491 1489 1488 1487 1486 1486 1485 1484 1483 1482 1481 1481 1480 1479 1478 1477 1476 1475 1475 1474 1473 1472 1471 1470 1470 1469 1468 1467 1467 1466 1465 1464 1463 1463 1462 1461 1460 1459 1459 1458 1457 1457 1456 1455 1455 1454 1454 1454 1453 1453 1453 1452 1452 1452 1451 1451 1451 1451 1451 1450 1450 1450 1450 1449 1449 1449 1449 1448 1448 1447 1447 1447 1446 1446 1445 1444 1443 1442 1441 1440 1439 1438 1437 1436 1435
1489 1488 1487 1486 1485 1484 1483 1483 1482 1481 1480 1480 1479 1478 1477 1477 1476 1475 1474 1473 1472 1472 1471 1470 1469 1469 1468 1467 1466 1466 1465 1464 1464 1463 1462 1461 1460 1460 1459 1458 1457 1456 1456 1455 1454 1454 1453 1452 1452 1452 1451 1451 1450 1450 1450 1449 1449 1449 1449 1449 1449 1449 1448 1448 1448 1448 1447 1447 1446 1446 1445 1445 1445 1444 1444 1443 1442 1441 1440 1439 1438 1437 1436 1435 1433
1488 1486 1485 1484 1483 1482 1482 1481 1481 1480 1479 1479 1478 1477 1477 1476 1475 1475 1474 1473 1472 1471 1470 1470 1469 1468 1467 1467 1466 1465 1465 1464 1463 1462 1461 1461 1460 1459 1458 1458 1457 1456 1455 1455 1454 1453 1453 1452 1451 1451 1450 1449 1449 1448 1448 1447 1447 1447 1447 1447 1447 1447 1447 1446 1446 1446 1445 1445 1444 1444 1443 1443 1443 1443 1442 1441 1441 1440 1439 1438 1437 1436 1434 1433 1432
1487 1485 1484 1483 1482 1481 1481 1480 1480 1480 1479 1478 1478 1477 1476 1476 1475 1474 1473 1472 1472 1471 1470 1469 1468 1467 1467 1466 1465 1464 1463 1463 1462 1461 1460 1460 1459 1458 1457 1457 1456 1455 1455 1454 1453 1452 1451 1451 1450 1450 1449 1448 1447 1447 1446 1446 1445 1445 1444 1444 1444 1444 1444 1444 1444 1443 1443 1442 1442 1442 1441 1441 1441 1440 1440 1439 1439 1438 1437 1436 1435 1434 1433 1432 1430
1486 1485 1483 1482 1482 1482 1481 1480 1480 1479 1479 1478 1478 1477 1476 1475 1475 1474 1473 1472 1471 1470 1469 1468 1467 1466 1465 1465 1464 1463 1462 1461 1461 1460 1459 1458 1457 1456 1456 1455 1455 1454 1453 1452 1451 1450 1449 1449 1448 1448 1447 1446 1445 1445 1444 1444 1443 1442 1442 1441 1441 1441 1441 1440 1440 1440 1439 1439 1439 1438 1438 1438 1437 1437 1437 1437 1436 1436 1435 1434 1433 1432 1431 1430 1429
1486 1485 1484 1483 1483 1482 1481 1481 1480 1480 1479 1478 1478 1477 1476 1475 1474 1474 1473 1472 1471 1470 1469 1468 1467 1465 1464 1463 1462 1461 1460 1460 1459 1458 1457 1456 1455 1454 1454 1453 1452 1451 1450 1450 1449 1448 1447 1446 1445 1445 1444 1444 1443 1442 1442 1441 1440 1440 1439 1439 1438 1438 1437 1437 1436 1436 1436 1435 1435 1434 1434 1434 1434 1434 1434 1433 1433 1433 1433 1432 1431 1431 1430 1428 1427
1486 1485 1484 1484 1483 1482 1482 1481 1480 1480 1479 1478 1477 1477 1476 1475 1474 1473 1472 1471 1470 1469 1468 1466 1465 1464 1463 1462 1460 1459 1458 1458 1457 1456 1455 1454 1453 1452 1451 1450 1449 1448 1447 1446 1446 1445 1444 1443 1442 1442 1441 1441 1440 1440 1439 1438 1438 1437 1436 1436 1435 1434 1434 1433 1433 1432 1432 1431 1431 1430 1430 1430 1430 1430 1430 1430 1430 1430 1430 1429 1429 1428 1427 1426 1425
1485 1485 1484 1484 1483 1482 1482 1481 1480 1480 1479 1478 1477 1476 1475 1474 1473 1472 1471 1469 1468 1467 1466 1464 1463 1462 1461 1459 1458 1457 1456 1455 1454 1453 1452 1451 1450 1449 1447 1446 1445 1445 1444 1443 1442 1441 1440 1440 1439 1438 1437 1437 1436 1436 1435 1435 1434 1433 1433 1432 1431 1431 1430 1430 1429 1428 1428 1427 1427 1426 1426 1425 1425 1425 1425 1425 1426 1426 1426 1426 1426 1425 1425 1424 1423
1484 1484 1483 1483 1482 1481 1481 1480 1479 1478 1478 1477 1476 1475 1473 1472 1471 1470 1468 1467 1466 1465 1463 1462 1461 1459 1458 1457 1456 1455 1454 1453 1452 1451 1449 1448 1447 1446 1445 1444 1443 1442 1441 1440 1439 1438 1437 1436 1435 1434 1434 1433 1432 1432 1431 1430 1430 1429 1429 1428 1427 1427 1426 1425 1425 1424 1424 1423 1423 1422 1422 1421 1421 1421 1421 1421 1422 1422 1422 1422 1422 1422 1421 1421 1420
1483 1483 1482 1481 1481 1480 1479 1479 1478 1477 1476 1475 1474 1472 1471 1470 1469 1467 1466 1465 1463 1462 1461 1460 1458 1457 1456 1454 1453 1452 1451 1450 1449 1448 1447 1446 1445 1443 1442 1441 1440 1439 1438 1437 1436 1435 1434 1433 1432 1432 1431 1430 1429 1429 1428 1428 1427 1426 1426 1425 1424 1423 1423 1422 1421 1420 1420 1419 1418 1418 1417 1417 1417 1416 1416 1417 1417 1418 1418 1418 1418 1418 1418 1417 1417
1481 1481 1480 1480 1479 1478 1478 1477 1476 1475 1474 1473 1471 1470 1469 1467 1466 1465 1463 1462 1461 1460 1458 1457 1456 1455 1453 1452 1451 1450 1449 1448 1447 1446 1445 1444 1443 1441 1440 1439 1438 1437 1436 1435 1434 1433 1432 1431 1430 1430 1429 1428 1427 1427 1426 1425 1425 1424 1423 1422 1422 1421 1420 1419 1418 1417 1417 1416 1415 1414 1413 1413 1412 1412 1412 1412 1413 1413 1414 1414 1414 1414 1414 1414 1414